Moby Aki — IBVV — position and weather

sailwx.info

Track history (hours):
 
Tides and Currents Weather Stations Pressure Air Temp Water Temp Dewpoint Dewpoint Depression Visibility Wind Speed Wind Dir Waves Ship Positions

Moby Aki

Last reported at 2014-Jul-24 22:31 UTC. Time now 2014-Jul-24 23:07 UTC.
Position N 43°33' E 010°18'.

Length 175 m; draft 6.9 m.

Type: Passenger vessel. MMSI: 247132400.

Date/timePositionNaut miles runAvg speedWind from/ knotsBaromVisibWave heightAir tempDewpointWater temp
2014-Jul-24 22:31N 43°33' E 010°18'0 0.0
2014-Jul-24 21:31N 43°33' E 010°18'6 6.7
2014-Jul-24 20:33N 43°28' E 010°13'2825.8
2014-Jul-24 19:29N 43°01' E 010°05'21 1.8
2014-Jul-24 08:09N 42°44' E 009°48'1626.3
2014-Jul-24 07:32N 42°58' E 009°58'2626.4
2014-Jul-24 06:34N 43°23' E 010°09'1211.4
2014-Jul-24 05:31N 43°33' E 010°18'0 0.0
2014-Jul-24 04:31N 43°33' E 010°18'5 5.7
2014-Jul-24 03:33N 43°30' E 010°12'2323.5
2014-Jul-24 02:34N 43°07' E 010°04'2323.5
2014-Jul-24 01:34N 42°44' E 009°57'2424.2
2014-Jul-24 00:34N 42°20' E 009°54'7223.7
2014-Jul-23 21:30N 41°08' E 009°43'1515.9
2014-Jul-23 20:33N 40°55' E 009°32'1 0.5
2014-Jul-23 19:31N 40°55' E 009°31'29 9.6
2014-Jul-23 16:29N 41°19' E 009°53'2425.9
2014-Jul-23 15:33N 41°41' E 010°06'3726.3
2014-Jul-23 14:09N 42°15' E 010°25'1826.4
2014-Jul-23 13:28N 42°33' E 010°30'2010.7
2014-Jul-23 11:34N 42°53' E 010°34'2625.3
2014-Jul-23 10:31N 42°27' E 010°29'25 2.5
2014-Jul-23 00:27N 42°22' E 009°56'2023.0
2014-Jul-22 23:33N 42°42' E 009°60'2323.3
2014-Jul-22 22:34N 43°05' E 010°05'2322.9
2014-Jul-22 21:34N 43°28' E 010°12'7 6.9
2014-Jul-22 20:32N 43°33' E 010°18'0 0.0
2014-Jul-22 19:32N 43°33' E 010°18'9 9.1
2014-Jul-22 18:34N 43°25' E 010°12'2625.6
2014-Jul-22 17:34N 43°01' E 010°03'2625.9
2014-Jul-22 16:34N 42°35' E 009°56'2726.6
2014-Jul-22 15:34N 42°09' E 009°53'47 3.1
2014-Jul-22 00:09N 42°56' E 010°02'1525.8
2014-Jul-21 23:34N 43°11' E 010°07'2322.9
2014-Jul-21 22:34N 43°32' E 010°17'1 1.0
2014-Jul-21 21:31N 43°33' E 010°18'0 0.5
2014-Jul-21 20:33N 43°33' E 010°17'415.7
2014-Jul-21 20:18N 43°30' E 010°14'1925.0
2014-Jul-21 19:34N 43°12' E 010°08'11 0.9
2014-Jul-21 07:23N 43°01' E 010°05'2226.5
2014-Jul-21 06:34N 43°22' E 010°11'1211.4
2014-Jul-21 05:30N 43°33' E 010°18'0 0.0
2014-Jul-21 04:33N 43°33' E 010°18'6 5.9
2014-Jul-21 03:33N 43°29' E 010°13'2121.3
2014-Jul-21 02:33N 43°08' E 010°07'13014.1
2014-Jul-20 17:19N 40°59' E 009°42'2625.5
2014-Jul-20 16:19N 41°23' E 009°55'2026.1
2014-Jul-20 15:33N 41°41' E 010°06'2726.2
2014-Jul-20 14:32N 42°05' E 010°20'3026.3
2014-Jul-20 13:24N 42°34' E 010°32'2225.6
2014-Jul-20 12:33N 42°56' E 010°34'0 0.4
2014-Jul-20 11:33N 42°56' E 010°33'2624.1
2014-Jul-20 10:29N 42°30' E 010°30'2526.0
2014-Jul-20 09:32N 42°06' E 010°21'2626.3
2014-Jul-20 08:33N 41°43' E 010°07'3526.6
2014-Jul-20 07:15N 41°11' E 009°48'1824.0
2014-Jul-20 06:31N 40°56' E 009°36'3 1.6
2014-Jul-20 04:31N 40°58' E 009°40'5225.8
2014-Jul-20 02:29N 41°49' E 009°51'2426.0
2014-Jul-20 01:33N 42°13' E 009°57'2625.7
2014-Jul-20 00:34N 42°39' E 009°58'2626.0
2014-Jul-19 23:34N 43°04' E 010°04'2626.2
2014-Jul-19 22:34N 43°30' E 010°12'5 5.2
2014-Jul-19 21:33N 43°33' E 010°18'3 2.6
2014-Jul-19 20:33N 43°31' E 010°16'2525.1
2014-Jul-19 19:34N 43°07' E 010°06'2626.1
2014-Jul-19 18:33N 42°42' E 009°59'2726.6
2014-Jul-19 17:33N 42°15' E 009°54'5326.0
2014-Jul-19 15:30N 41°22' E 009°45'2525.9
2014-Jul-19 14:33N 40°58' E 009°40'4 1.9
2014-Jul-19 12:26N 40°56' E 009°36'1820.7
2014-Jul-19 11:33N 41°13' E 009°44'2726.6
2014-Jul-19 10:33N 41°39' E 009°48'2626.5
2014-Jul-19 09:34N 42°05' E 009°53'2625.9
2014-Jul-19 08:33N 42°31' E 009°57'2626.1
2014-Jul-19 07:34N 42°57' E 010°03'2726.6
2014-Jul-19 06:33N 43°23' E 010°10'1211.7
2014-Jul-19 05:33N 43°33' E 010°18'0 0.0
2014-Jul-19 04:33N 43°33' E 010°18'6 6.3
2014-Jul-19 03:33N 43°28' E 010°13'2423.8
2014-Jul-19 02:34N 43°04' E 010°07'2323.4
2014-Jul-19 01:34N 42°42' E 009°56'2323.0
2014-Jul-19 00:34N 42°20' E 009°55'2323.4
2014-Jul-18 23:33N 41°56' E 009°52'57 9.1
2014-Jul-18 17:19N 40°60' E 009°42'2126.4
2014-Jul-18 16:31N 41°19' E 009°53'2526.2
2014-Jul-18 15:33N 41°42' E 010°06'3426.4
2014-Jul-18 14:17N 42°13' E 010°24'2026.7
2014-Jul-18 13:33N 42°32' E 010°31'2411.8
2014-Jul-18 11:33N 42°56' E 010°34'2624.6
2014-Jul-18 10:29N 42°30' E 010°29'3125.6
2014-Jul-18 09:16N 41°60' E 010°17'2626.2
2014-Jul-18 08:17N 41°36' E 010°03'2026.4
2014-Jul-18 07:31N 41°17' E 009°52'34 6.9
2014-Jul-18 02:33N 41°52' E 009°51'2625.8
2014-Jul-18 01:34N 42°17' E 009°55'2625.7
2014-Jul-18 00:33N 42°43' E 009°60'2625.8
2014-Jul-17 23:34N 43°08' E 010°06'2524.5
2014-Jul-17 22:33N 43°32' E 010°15'2 2.3
2014-Jul-17 21:32N 43°33' E 010°18'0 0.2
2014-Jul-17 20:33N 43°33' E 010°18'2121.5
2014-Jul-17 19:33N 43°13' E 010°08'2625.9
2014-Jul-17 18:33N 42°47' E 010°00'2626.0
2014-Jul-17 17:32N 42°21' E 009°56'6426.0
2014-Jul-17 15:05N 41°18' E 009°45'27 5.6
2014-Jul-17 10:21N 41°44' E 009°49'2526.6
2014-Jul-17 09:25N 42°09' E 009°53'2326.3
2014-Jul-17 08:34N 42°31' E 009°57'2626.4
2014-Jul-17 07:34N 42°58' E 010°02'2726.7
2014-Jul-17 06:34N 43°24' E 010°09'1111.2
2014-Jul-17 05:33N 43°33' E 010°18'0 0.0
2014-Jul-17 04:33N 43°33' E 010°18'6 6.0
2014-Jul-17 03:33N 43°28' E 010°13'2322.9
2014-Jul-17 02:34N 43°06' E 010°06'2323.2
2014-Jul-17 01:33N 42°43' E 010°00'2323.0
2014-Jul-17 00:33N 42°20' E 009°55'76 3.7
2014-Jul-16 04:07N 41°05' E 009°44'1423.2
2014-Jul-16 03:31N 41°18' E 009°45'3123.0
2014-Jul-16 02:10N 41°49' E 009°51'1423.1
2014-Jul-16 01:33N 42°03' E 009°53'2322.6
2014-Jul-16 00:33N 42°26' E 009°57'2222.5
2014-Jul-15 23:33N 42°48' E 010°02'2322.6
2014-Jul-15 22:33N 43°10' E 010°07'2222.2
2014-Jul-15 21:33N 43°32' E 010°15'3 2.6
2014-Jul-15 20:31N 43°33' E 010°18'0 0.0
2014-Jul-15 19:31N 43°33' E 010°18'1212.7
2014-Jul-15 18:34N 43°22' E 010°11'2525.5
2014-Jul-15 17:34N 42°57' E 010°03'2726.2
2014-Jul-15 16:32N 42°31' E 009°56'2626.6
2014-Jul-15 15:34N 42°05' E 009°52'47 3.1
2014-Jul-15 00:34N 42°51' E 010°01'2626.4
2014-Jul-14 23:34N 43°17' E 010°09'1717.0
2014-Jul-14 22:32N 43°33' E 010°18'  
Track history (hours):
 
Tides and Currents Weather Stations Pressure Air Temp Water Temp Dewpoint Dewpoint Depression Visibility Wind Speed Wind Dir Waves Ship Positions

Moby Aki

Last reported at 2014-Jul-24 22:31 UTC. Time now 2014-Jul-24 23:07 UTC.
Position N 43°33' E 010°18'.

Length 175 m; draft 6.9 m.

Type: Passenger vessel. MMSI: 247132400.

Date/timePositionNaut miles runAvg speedWind from/ knotsBaromVisibWave heightAir tempDewpointWater temp
2014-Jul-24 22:31N 43°33' E 010°18'0 0.0
2014-Jul-24 21:31N 43°33' E 010°18'6 6.7
2014-Jul-24 20:33N 43°28' E 010°13'2825.8
2014-Jul-24 19:29N 43°01' E 010°05'21 1.8
2014-Jul-24 08:09N 42°44' E 009°48'1626.3
2014-Jul-24 07:32N 42°58' E 009°58'2626.4
2014-Jul-24 06:34N 43°23' E 010°09'1211.4
2014-Jul-24 05:31N 43°33' E 010°18'0 0.0
2014-Jul-24 04:31N 43°33' E 010°18'5 5.7
2014-Jul-24 03:33N 43°30' E 010°12'2323.5
2014-Jul-24 02:34N 43°07' E 010°04'2323.5
2014-Jul-24 01:34N 42°44' E 009°57'2424.2
2014-Jul-24 00:34N 42°20' E 009°54'7223.7
2014-Jul-23 21:30N 41°08' E 009°43'1515.9
2014-Jul-23 20:33N 40°55' E 009°32'1 0.5
2014-Jul-23 19:31N 40°55' E 009°31'29 9.6
2014-Jul-23 16:29N 41°19' E 009°53'2425.9
2014-Jul-23 15:33N 41°41' E 010°06'3726.3
2014-Jul-23 14:09N 42°15' E 010°25'1826.4
2014-Jul-23 13:28N 42°33' E 010°30'2010.7
2014-Jul-23 11:34N 42°53' E 010°34'2625.3
2014-Jul-23 10:31N 42°27' E 010°29'25 2.5
2014-Jul-23 00:27N 42°22' E 009°56'2023.0
2014-Jul-22 23:33N 42°42' E 009°60'2323.3
2014-Jul-22 22:34N 43°05' E 010°05'2322.9
2014-Jul-22 21:34N 43°28' E 010°12'7 6.9
2014-Jul-22 20:32N 43°33' E 010°18'0 0.0
2014-Jul-22 19:32N 43°33' E 010°18'9 9.1
2014-Jul-22 18:34N 43°25' E 010°12'2625.6
2014-Jul-22 17:34N 43°01' E 010°03'2625.9
2014-Jul-22 16:34N 42°35' E 009°56'2726.6
2014-Jul-22 15:34N 42°09' E 009°53'47 3.1
2014-Jul-22 00:09N 42°56' E 010°02'1525.8
2014-Jul-21 23:34N 43°11' E 010°07'2322.9
2014-Jul-21 22:34N 43°32' E 010°17'1 1.0
2014-Jul-21 21:31N 43°33' E 010°18'0 0.5
2014-Jul-21 20:33N 43°33' E 010°17'415.7
2014-Jul-21 20:18N 43°30' E 010°14'1925.0
2014-Jul-21 19:34N 43°12' E 010°08'11 0.9
2014-Jul-21 07:23N 43°01' E 010°05'2226.5
2014-Jul-21 06:34N 43°22' E 010°11'1211.4
2014-Jul-21 05:30N 43°33' E 010°18'0 0.0
2014-Jul-21 04:33N 43°33' E 010°18'6 5.9
2014-Jul-21 03:33N 43°29' E 010°13'2121.3
2014-Jul-21 02:33N 43°08' E 010°07'13014.1
2014-Jul-20 17:19N 40°59' E 009°42'2625.5
2014-Jul-20 16:19N 41°23' E 009°55'2026.1
2014-Jul-20 15:33N 41°41' E 010°06'2726.2
2014-Jul-20 14:32N 42°05' E 010°20'3026.3
2014-Jul-20 13:24N 42°34' E 010°32'2225.6
2014-Jul-20 12:33N 42°56' E 010°34'0 0.4
2014-Jul-20 11:33N 42°56' E 010°33'2624.1
2014-Jul-20 10:29N 42°30' E 010°30'2526.0
2014-Jul-20 09:32N 42°06' E 010°21'2626.3
2014-Jul-20 08:33N 41°43' E 010°07'3526.6
2014-Jul-20 07:15N 41°11' E 009°48'1824.0
2014-Jul-20 06:31N 40°56' E 009°36'3 1.6
2014-Jul-20 04:31N 40°58' E 009°40'5225.8
2014-Jul-20 02:29N 41°49' E 009°51'2426.0
2014-Jul-20 01:33N 42°13' E 009°57'2625.7
2014-Jul-20 00:34N 42°39' E 009°58'2626.0
2014-Jul-19 23:34N 43°04' E 010°04'2626.2
2014-Jul-19 22:34N 43°30' E 010°12'5 5.2
2014-Jul-19 21:33N 43°33' E 010°18'3 2.6
2014-Jul-19 20:33N 43°31' E 010°16'2525.1
2014-Jul-19 19:34N 43°07' E 010°06'2626.1
2014-Jul-19 18:33N 42°42' E 009°59'2726.6
2014-Jul-19 17:33N 42°15' E 009°54'5326.0
2014-Jul-19 15:30N 41°22' E 009°45'2525.9
2014-Jul-19 14:33N 40°58' E 009°40'4 1.9
2014-Jul-19 12:26N 40°56' E 009°36'1820.7
2014-Jul-19 11:33N 41°13' E 009°44'2726.6
2014-Jul-19 10:33N 41°39' E 009°48'2626.5
2014-Jul-19 09:34N 42°05' E 009°53'2625.9
2014-Jul-19 08:33N 42°31' E 009°57'2626.1
2014-Jul-19 07:34N 42°57' E 010°03'2726.6
2014-Jul-19 06:33N 43°23' E 010°10'1211.7
2014-Jul-19 05:33N 43°33' E 010°18'0 0.0
2014-Jul-19 04:33N 43°33' E 010°18'6 6.3
2014-Jul-19 03:33N 43°28' E 010°13'2423.8
2014-Jul-19 02:34N 43°04' E 010°07'2323.4
2014-Jul-19 01:34N 42°42' E 009°56'2323.0
2014-Jul-19 00:34N 42°20' E 009°55'2323.4
2014-Jul-18 23:33N 41°56' E 009°52'57 9.1
2014-Jul-18 17:19N 40°60' E 009°42'2126.4
2014-Jul-18 16:31N 41°19' E 009°53'2526.2
2014-Jul-18 15:33N 41°42' E 010°06'3426.4
2014-Jul-18 14:17N 42°13' E 010°24'2026.7
2014-Jul-18 13:33N 42°32' E 010°31'2411.8
2014-Jul-18 11:33N 42°56' E 010°34'2624.6
2014-Jul-18 10:29N 42°30' E 010°29'3125.6
2014-Jul-18 09:16N 41°60' E 010°17'2626.2
2014-Jul-18 08:17N 41°36' E 010°03'2026.4
2014-Jul-18 07:31N 41°17' E 009°52'34 6.9
2014-Jul-18 02:33N 41°52' E 009°51'2625.8
2014-Jul-18 01:34N 42°17' E 009°55'2625.7
2014-Jul-18 00:33N 42°43' E 009°60'2625.8
2014-Jul-17 23:34N 43°08' E 010°06'2524.5
2014-Jul-17 22:33N 43°32' E 010°15'2 2.3
2014-Jul-17 21:32N 43°33' E 010°18'0 0.2
2014-Jul-17 20:33N 43°33' E 010°18'2121.5
2014-Jul-17 19:33N 43°13' E 010°08'2625.9
2014-Jul-17 18:33N 42°47' E 010°00'2626.0
2014-Jul-17 17:32N 42°21' E 009°56'6426.0
2014-Jul-17 15:05N 41°18' E 009°45'27 5.6
2014-Jul-17 10:21N 41°44' E 009°49'2526.6
2014-Jul-17 09:25N 42°09' E 009°53'2326.3
2014-Jul-17 08:34N 42°31' E 009°57'2626.4
2014-Jul-17 07:34N 42°58' E 010°02'2726.7
2014-Jul-17 06:34N 43°24' E 010°09'1111.2
2014-Jul-17 05:33N 43°33' E 010°18'0 0.0
2014-Jul-17 04:33N 43°33' E 010°18'6 6.0
2014-Jul-17 03:33N 43°28' E 010°13'2322.9
2014-Jul-17 02:34N 43°06' E 010°06'2323.2
2014-Jul-17 01:33N 42°43' E 010°00'2323.0
2014-Jul-17 00:33N 42°20' E 009°55'76 3.7
2014-Jul-16 04:07N 41°05' E 009°44'1423.2
2014-Jul-16 03:31N 41°18' E 009°45'3123.0
2014-Jul-16 02:10N 41°49' E 009°51'1423.1
2014-Jul-16 01:33N 42°03' E 009°53'2322.6
2014-Jul-16 00:33N 42°26' E 009°57'2222.5
2014-Jul-15 23:33N 42°48' E 010°02'2322.6
2014-Jul-15 22:33N 43°10' E 010°07'2222.2
2014-Jul-15 21:33N 43°32' E 010°15'3 2.6
2014-Jul-15 20:31N 43°33' E 010°18'0 0.0
2014-Jul-15 19:31N 43°33' E 010°18'1212.7
2014-Jul-15 18:34N 43°22' E 010°11'2525.5
2014-Jul-15 17:34N 42°57' E 010°03'2726.2
2014-Jul-15 16:32N 42°31' E 009°56'2626.6
2014-Jul-15 15:34N 42°05' E 009°52'47 3.1
2014-Jul-15 00:34N 42°51' E 010°01'2626.4
2014-Jul-14 23:34N 43°17' E 010°09'1717.0
2014-Jul-14 22:32N 43°33' E 010°18'  

Dump ship's entire track history